sat.trackr.live / text

‹ back to catalog

STARLINK-32554

NORAD 62136 · 2024-222Y

PAYLOAD ACTIVE UNKNOWN

§ Identity

Operator
Country
US
Launch date
2024-11-27
Launch site
AFETR
Launch vehicle
Mass (kg)
RCS (m²)

Purposes: comms

External: N2YO · Heavens-Above · Gunter

§ Orbital elements

Epoch: 2026-09-21T20:58:10.245216Z

Period
94.27 min
Inclination
43.0016°
Eccentricity
0.0001658
Mean motion
15.27589385 rev/d
Perigee alt
481.9 km
Apogee alt
484.2 km
Semi-major
6,861.2 km
B*
4.5650e-4
RAAN
108.1624°
Arg perigee
283.0469°
Mean anomaly
77.0198°
Rev number
10,280

§ Raw data

STARLINK-325541 62136U 24222Y   26264.87372969  .00012324  00000+0  45650-3 0  99952 62136  43.0016 108.1624 0001658 283.0469  77.0198 15.27589385102804

JSON: /api/v1/satellites/62136 · /tle

For live sub-satellite position, see the globe view (requires WebGL).

§ Visibility from observer

Set your observer location to see the next 7 days of passes ≥ 10°. The values pass through the URL so the page stays shareable.

No JS? Fill the form by hand. The geolocation button needs JavaScript.